[[{"header":{"parameterUnit":"m.s-1","parameterCategory":1,"la1":30.2991,"la2":30.254,"lo1":-89.0895,"lo2":-89.0444,"dy":0.0017,"dx":0.0017,"nx":28,"ny":28,"refTime":"2025-07-08T09:00:00:Z","depth":0,"parameterNumber":2,"parameterNumberName":"U-component_of_WINDS"},"data":[0,0,0,0,0,0,0,0,0,0,0,0,0,0,0,0,0,0,0,0,0,0,0,0,0,0,0,0,0,0,0,0,0,0,0,0,0,0,0,0,0,0,0,0,0,0,0,0,0,0,0,0,0,0,0,0,0,0,1.9396,1.9398,0,1.9533,1.9535,1.9536,1.9564,1.9563,1.9562,1.9561,1.9707,1.9712,1.9717,0,0,0,0,0,0,0,0,0,0,0,0,0,1.9164,1.9168,1.9396,1.9398,1.9399,1.9533,1.9535,1.9537,1.9565,1.9563,1.9562,1.9561,1.9706,1.9712,1.9718,0,0,0,0,0,0,0,0,0,0,0,0,0,1.9279,1.9169,1.9396,1.9429,1.9434,1.9533,1.9535,1.9537,1.9565,1.9563,1.9562,1.956,1.9704,1.9711,1.9718,1.9795,0,0,1.9741,1.9744,0,0,0,0,0,0,0,0,1.9273,1.9288,1.9423,1.9427,1.9432,1.953,1.9507,1.9624,1.9565,1.9515,1.9561,1.9559,1.965,1.9662,1.9691,1.9802,1.9809,1.9741,1.9746,1.9749,1.9751,0,0,0,0,0,0,0,1.9265,1.9282,1.9451,1.9425,1.943,1.9439,1.9454,1.9529,1.959,1.9519,1.9522,1.9537,1.9652,1.9684,1.9695,1.9811,1.9741,1.9748,1.9752,1.9755,1.9994,1.9996,0,0,0,0,0,0,1.925,1.9275,1.9446,1.9455,1.9347,1.9445,1.9461,1.95,1.9589,1.9601,1.9539,1.9538,1.9672,1.9686,1.97,1.9797,1.9749,1.9756,1.976,1.9992,1.9994,1.9996,0,0,0,0,0,0,1.9245,1.9265,1.9441,1.9366,1.9389,1.945,1.9494,1.9504,1.9535,1.9604,1.9615,1.9559,1.9672,1.969,1.9771,1.9803,1.9759,1.9766,1.9989,1.9993,1.9995,1.9991,0,0,0,0,0,0,1.9238,1.9263,1.9291,1.9366,1.9392,1.9508,1.9496,1.9508,1.9547,1.9548,1.9626,1.9638,1.9672,1.976,1.9779,1.9812,1.9771,1.9987,1.9991,1.9994,1.9989,1.9994,1.9998,0,0,0,0,0,1.923,1.9286,1.9293,1.9313,1.9429,1.951,1.9525,1.9561,1.955,1.958,1.9624,1.9635,1.9796,1.9768,1.9789,1.9825,1.9985,1.999,1.9994,1.9987,1.9993,1.9998,0,0,0,0,0,0,1.9215,1.9296,1.9305,1.9386,1.9441,1.9514,1.9553,1.9566,1.9627,1.9625,1.9669,1.9687,1.9766,1.9804,1.9772,1.9905,1.989,1.9899,1.9878,1.9884,1.9888,1.9878,1.9778,0,0,0,0,0,1.9221,1.9278,1.9346,1.9412,1.9438,1.9491,1.9527,1.9551,1.961,1.9633,1.9683,1.9742,1.9806,1.9847,1.9909,1.9994,2.0013,2.003,2.0034,2.0037,2.0045,2.0094,2.0103,2.0011,2.0011,2.0011,0,0,1.9235,1.9286,1.9319,1.941,1.9455,1.9515,1.951,1.9573,1.9619,1.9644,1.9723,1.9762,1.983,1.9914,1.9954,1.9948,2.0074,2.0043,2.0045,2.0051,2.01,2.0108,2.0116,2.0014,2.0013,2.0013,0,0,1.929,1.9334,1.9394,1.9438,1.9506,1.954,1.9555,1.9626,1.9653,1.9733,1.9753,1.9809,1.9917,1.9965,2.0004,2.0078,2.0091,2.0097,2.0121,2.0168,2.0176,2.0183,2.021,2.022,2.0104,2.0104,2.0104,0,1.9299,1.9388,1.9423,1.9486,1.9526,1.9549,1.9611,1.9653,1.9738,1.9767,1.9758,1.9896,1.9943,2.0039,2.0057,2.0087,2.0107,2.0089,2.0171,2.0179,2.0185,2.0213,2.0223,2.0104,2.0104,2.0104,2.0104,0,1.9396,1.9458,1.9498,1.9578,1.9623,1.9685,1.9731,1.9773,1.9792,1.9828,1.9911,1.9969,2.0043,2.0068,2.0088,2.0168,2.0162,2.0162,2.0148,2.0194,2.022,2.0231,2.0105,2.0105,2.0105,2.0105,0,0,1.9447,1.9545,1.956,1.9597,1.9673,1.9722,1.9786,1.9857,1.9893,1.9951,2.0007,2.0098,2.0098,2.0142,2.0168,2.021,2.0266,2.0205,2.0208,2.0216,2.0359,2.036,2.0371,2.0275,2.0277,2.0279,2.0354,0,1.9513,1.9625,1.9659,1.9755,1.9813,1.9836,1.9892,1.9945,1.9981,2.0037,2.0077,2.0142,2.0137,2.0164,2.0206,2.025,2.0296,2.0245,2.033,2.0332,2.0313,2.0384,2.0385,2.0453,2.0364,2.0366,2.0367,0,1.9604,1.9662,1.9763,1.9832,1.9858,1.9907,1.9976,2.0029,2.0091,2.0114,2.0163,2.0185,2.0255,2.0236,2.0333,2.0298,2.0335,2.0362,2.0366,2.0376,2.0353,2.0398,2.0475,2.0486,2.0384,2.0382,2.0381,0,1.9633,1.9736,1.981,1.9841,1.9923,1.9958,1.9994,2.0054,2.0095,2.0156,2.0184,2.0252,2.029,2.0344,2.0385,2.0367,2.048,2.0463,2.0502,2.0501,2.0526,2.0524,2.0612,2.0547,2.0547,2.0547,2.0547,0,1.9703,1.9764,1.9824,1.987,1.9939,1.9978,2.0047,2.0085,2.0138,2.0193,2.0218,2.0269,2.0319,2.0378,2.0411,2.0487,2.0504,2.0526,2.0535,2.0525,2.0522,2.055,2.0547,2.055,2.0549,2.0549,2.0548,0,1.9747,1.9789,1.9872,1.9943,1.9962,2.001,2.0072,2.0118,2.0154,2.0223,2.0242,2.03,2.037,2.0416,2.0506,2.0528,2.0612,2.0618,2.059,2.0595,2.0631,2.0628,2.0741,2.0759,2.0681,2.0682,2.0682,0,1.979,1.9837,1.9913,1.995,1.9987,2.0047,2.0089,2.0129,2.0172,2.0247,2.0285,2.0356,2.0415,2.0527,2.0578,2.0647,2.0657,2.0691,2.0667,2.0656,2.0659,2.0656,2.0661,2.0696,2.0696,2.0697,2.0697,0,1.9862,1.988,1.9938,2.0004,2.0053,2.0107,2.0162,2.0192,2.0242,2.029,2.0361,2.0407,2.0498,2.0569,2.0643,2.0683,2.07,2.0704,2.0717,2.0708,2.069,2.0702,2.0602,2.0702,2.0701,2.0701,2.0701,2.0701,1.9908,1.9951,2.0011,2.0076,2.012,2.0171,2.0218,2.0259,2.0319,2.0395,2.0416,2.0491,2.0553,2.0654,2.0695,2.0755,2.0751,2.077,2.0775,2.0779,2.078,2.068,2.0769,2.0769,2.0769,2.0769,2.0769,0,1.9982,2.0021,2.008,2.0155,2.0206,2.0215,2.0276,2.0318,2.0383,2.0439,2.0496,2.0579,2.0648,2.0704,2.0776,2.0814,2.0824,2.0832,2.083,2.0839,2.0779,2.0761,2.0823,2.0823,2.0823,2.0823,2.0823,2.0823,2.0027,2.0101,2.0126,2.0224,2.0264,2.0336,2.037,2.0417,2.0462,2.0552,2.0609,2.0645,2.0702,2.0778,2.0842,2.0857,2.0883,2.089,2.0907,2.0849,2.0843,2.0838,2.0821,2.0895,2.0895,2.0963,2.0963,2.0964]},{"header":{"parameterUnit":"m.s-1","parameterCategory":1,"la1":30.2991,"la2":30.254,"lo1":-89.0895,"lo2":-89.0444,"dy":0.0017,"dx":0.0017,"nx":28,"ny":28,"refTime":"2025-07-08T09:00:00:Z","depth":0,"parameterNumber":3,"parameterNumberName":"V-component_of_WINDS"},"data":[0,0,0,0,0,0,0,0,0,0,0,0,0,0,0,0,0,0,0,0,0,0,0,0,0,0,0,0,0,0,0,0,0,0,0,0,0,0,0,0,0,0,0,0,0,0,0,0,0,0,0,0,0,0,0,0,0,0,1.6315,1.6314,0,1.6298,1.6298,1.6298,1.6283,1.6283,1.6283,1.6283,1.6263,1.6263,1.6262,0,0,0,0,0,0,0,0,0,0,0,0,0,1.633,1.6329,1.6315,1.6314,1.6314,1.6298,1.6298,1.6297,1.6283,1.6283,1.6283,1.6283,1.6263,1.6263,1.6262,0,0,0,0,0,0,0,0,0,0,0,0,0,1.6319,1.6329,1.6315,1.6305,1.6304,1.6298,1.6298,1.6297,1.6283,1.6283,1.6283,1.6282,1.6263,1.6263,1.6262,1.6263,0,0,1.626,1.626,0,0,0,0,0,0,0,0,1.632,1.6318,1.6307,1.6306,1.6305,1.6292,1.6296,1.6286,1.6283,1.6291,1.6283,1.6282,1.6273,1.6271,1.6269,1.6262,1.6262,1.626,1.626,1.626,1.626,0,0,0,0,0,0,0,1.632,1.6319,1.6308,1.6307,1.6305,1.63,1.6298,1.6294,1.6283,1.629,1.6289,1.6288,1.6272,1.6269,1.6268,1.6261,1.626,1.626,1.626,1.6259,1.6251,1.6252,0,0,0,0,0,0,1.6323,1.632,1.6308,1.6307,1.6312,1.63,1.6298,1.6297,1.6283,1.6281,1.6288,1.6287,1.627,1.6269,1.6267,1.6266,1.626,1.6259,1.6259,1.6251,1.6251,1.6252,0,0,0,0,0,0,1.6323,1.6322,1.6309,1.6313,1.6311,1.63,1.6298,1.6296,1.6294,1.6282,1.6279,1.6287,1.627,1.6268,1.6264,1.6265,1.6259,1.6259,1.6251,1.6251,1.6252,1.6264,0,0,0,0,0,0,1.6324,1.6323,1.6324,1.6314,1.6311,1.6307,1.6299,1.6296,1.6293,1.6292,1.628,1.6278,1.627,1.6265,1.6263,1.6264,1.6258,1.6251,1.6251,1.6251,1.6264,1.6265,1.6266,0,0,0,0,0,1.6325,1.6329,1.6324,1.6323,1.6313,1.6308,1.6306,1.6297,1.6293,1.6294,1.6285,1.6278,1.6265,1.6264,1.6263,1.6263,1.6251,1.6251,1.6251,1.6263,1.6264,1.6266,0,0,0,0,0,0,1.634,1.6327,1.6322,1.6323,1.6317,1.6305,1.6306,1.6299,1.6293,1.6292,1.6281,1.6278,1.6274,1.6268,1.6268,1.6262,1.6257,1.6257,1.6266,1.6268,1.6269,1.627,1.6258,0,0,0,0,0,1.6343,1.6341,1.6329,1.6331,1.6328,1.6317,1.6315,1.6308,1.6301,1.6298,1.6289,1.6281,1.6274,1.6271,1.6265,1.6262,1.6258,1.6262,1.6263,1.6264,1.6264,1.6259,1.626,1.6253,1.6253,1.6253,0,0,1.635,1.6343,1.6342,1.6334,1.6328,1.6324,1.6315,1.6312,1.6309,1.6297,1.6292,1.6285,1.6275,1.6271,1.6269,1.6266,1.6264,1.6264,1.6265,1.6264,1.626,1.626,1.6261,1.6253,1.6253,1.6253,0,0,1.6361,1.6356,1.6356,1.6349,1.634,1.6333,1.6333,1.6322,1.6317,1.6312,1.6302,1.6297,1.6287,1.6279,1.6274,1.6278,1.6271,1.6276,1.6282,1.6278,1.6278,1.6279,1.6278,1.6279,1.6276,1.6276,1.6277,0,1.637,1.6365,1.6356,1.6353,1.6348,1.6337,1.6335,1.633,1.6319,1.6315,1.6312,1.6297,1.629,1.6283,1.6284,1.6281,1.6278,1.6278,1.6279,1.628,1.628,1.6279,1.6279,1.6277,1.6277,1.6277,1.6277,0,1.6376,1.6373,1.6373,1.6363,1.6359,1.6356,1.6345,1.6341,1.6334,1.6326,1.6319,1.631,1.63,1.6298,1.6291,1.6289,1.6287,1.6282,1.6276,1.6281,1.628,1.628,1.6278,1.6278,1.6278,1.6277,0,0,1.6397,1.638,1.638,1.6374,1.6362,1.6359,1.6354,1.6345,1.6341,1.6333,1.6328,1.6319,1.6313,1.6307,1.6299,1.6295,1.6297,1.629,1.629,1.629,1.629,1.6294,1.6294,1.6292,1.6291,1.6291,1.6291,0,1.6405,1.6398,1.6388,1.6384,1.6379,1.6367,1.6363,1.6354,1.6346,1.6339,1.6329,1.6322,1.6316,1.6312,1.6308,1.6298,1.6296,1.6297,1.6285,1.6284,1.6287,1.6294,1.6298,1.6298,1.6291,1.6291,1.6291,0,1.6413,1.6405,1.6401,1.6387,1.6384,1.6381,1.637,1.6365,1.6353,1.6347,1.6339,1.633,1.6323,1.6318,1.6306,1.6307,1.6301,1.6295,1.6294,1.6292,1.6288,1.6291,1.6298,1.6298,1.629,1.629,1.629,0,1.6426,1.6415,1.641,1.6405,1.639,1.6387,1.638,1.6368,1.6363,1.6353,1.6348,1.6337,1.6331,1.6322,1.6309,1.6308,1.6298,1.6293,1.6291,1.6292,1.629,1.629,1.6295,1.6288,1.6288,1.6288,1.6288,0,1.6435,1.6432,1.6416,1.6412,1.6408,1.6395,1.6391,1.6382,1.6372,1.6365,1.6354,1.6348,1.6332,1.6323,1.6313,1.6303,1.6301,1.6295,1.6292,1.6295,1.6296,1.6291,1.629,1.6288,1.6288,1.6288,1.6288,0,1.645,1.6439,1.6432,1.6417,1.6413,1.641,1.6396,1.6391,1.6382,1.6373,1.6371,1.6355,1.6344,1.6331,1.6315,1.6308,1.6299,1.6295,1.6303,1.6301,1.63,1.63,1.6302,1.63,1.6294,1.6295,1.6295,0,1.6456,1.6453,1.6437,1.6432,1.6426,1.6418,1.6412,1.6399,1.6392,1.6377,1.6374,1.6362,1.6352,1.6334,1.632,1.6307,1.6303,1.6304,1.6301,1.6303,1.6301,1.6301,1.63,1.6305,1.6305,1.6305,1.6305,0,1.6467,1.6461,1.6453,1.6442,1.6435,1.6426,1.6416,1.6412,1.6397,1.6389,1.6378,1.637,1.6354,1.6341,1.6326,1.6317,1.6308,1.6306,1.6305,1.6308,1.6312,1.6308,1.6304,1.6306,1.6306,1.6306,1.6306,1.6306,1.6476,1.6472,1.646,1.6451,1.6442,1.6432,1.6427,1.6416,1.6406,1.6393,1.6385,1.6373,1.6358,1.6338,1.6329,1.6318,1.6315,1.6313,1.6313,1.6312,1.6313,1.6314,1.6315,1.6315,1.6315,1.6315,1.6315,0,1.6485,1.6476,1.6468,1.6454,1.6446,1.6439,1.6427,1.642,1.641,1.6398,1.6388,1.6373,1.6361,1.6345,1.6331,1.6325,1.632,1.6321,1.6321,1.6319,1.6317,1.6319,1.6325,1.6325,1.6325,1.6325,1.6325,1.6325,1.6489,1.6482,1.6474,1.6461,1.6451,1.644,1.6434,1.6424,1.6414,1.6399,1.6388,1.6378,1.6364,1.6348,1.6335,1.6331,1.6325,1.6328,1.6322,1.632,1.6319,1.6319,1.632,1.6327,1.6327,1.6324,1.6324,1.6324]}]]